TimeEST,TemperatureF,Dew PointF,Humidity,Sea Level PressureIn,VisibilityMPH,Wind Direction,Wind SpeedMPH,Gust SpeedMPH,PrecipitationIn,Events,Conditions,WindDirDegrees,DateUTC
12:15 AM,33.8,24.8,70,30.47,10.0,WSW,5.8,-,N/A,,Clear,250,2013-01-10 05:15:00
12:35 AM,33.8,24.8,70,30.48,10.0,West,4.6,-,N/A,,Clear,260,2013-01-10 05:35:00
12:55 AM,33.8,24.8,70,30.48,10.0,WSW,6.9,-,N/A,,Clear,250,2013-01-10 05:55:00
1:15 AM,33.8,24.8,70,30.49,10.0,WSW,6.9,-,N/A,,Clear,250,2013-01-10 06:15:00
1:35 AM,33.8,24.8,70,30.49,10.0,WSW,6.9,-,N/A,,Clear,250,2013-01-10 06:35:00
1:55 AM,33.8,24.8,70,30.49,10.0,West,5.8,-,N/A,,Clear,260,2013-01-10 06:55:00
2:15 AM,33.8,24.8,70,30.50,10.0,West,4.6,-,N/A,,Clear,260,2013-01-10 07:15:00
2:35 AM,33.8,24.8,70,30.50,10.0,Calm,Calm,-,N/A,,Clear,0,2013-01-10 07:35:00
2:55 AM,32.0,24.8,75,30.50,10.0,Calm,Calm,-,N/A,,Clear,0,2013-01-10 07:55:00
3:15 AM,30.2,24.8,80,30.50,10.0,Calm,Calm,-,N/A,,Clear,0,2013-01-10 08:15:00
3:35 AM,30.2,24.8,80,30.50,10.0,SW,3.5,-,N/A,,Clear,220,2013-01-10 08:35:00
3:55 AM,30.2,24.8,80,30.49,10.0,SW,3.5,-,N/A,,Clear,230,2013-01-10 08:55:00
4:15 AM,28.4,24.8,86,30.50,10.0,WSW,3.5,-,N/A,,Clear,250,2013-01-10 09:15:00
4:35 AM,28.4,24.8,86,30.49,10.0,West,3.5,-,N/A,,Clear,260,2013-01-10 09:35:00
4:55 AM,28.4,24.8,86,30.50,10.0,Calm,Calm,-,N/A,,Clear,0,2013-01-10 09:55:00
5:15 AM,28.4,23.0,80,30.50,10.0,SW,3.5,-,N/A,,Clear,220,2013-01-10 10:15:00
5:35 AM,28.4,24.8,86,30.51,10.0,Calm,Calm,-,N/A,,Clear,0,2013-01-10 10:35:00
5:55 AM,28.4,24.8,86,30.52,10.0,Calm,Calm,-,N/A,,Clear,0,2013-01-10 10:55:00
6:15 AM,26.6,23.0,86,30.53,9.0,Calm,Calm,-,N/A,,Clear,0,2013-01-10 11:15:00
6:35 AM,24.8,23.0,93,30.53,7.0,Calm,Calm,-,N/A,,Clear,0,2013-01-10 11:35:00
6:55 AM,24.8,21.2,86,30.54,7.0,Calm,Calm,-,N/A,,Clear,0,2013-01-10 11:55:00
7:35 AM,24.8,23.0,93,30.56,4.0,Calm,Calm,-,N/A,,Clear,0,2013-01-10 12:35:00
7:55 AM,23.0,21.2,93,30.56,3.0,Calm,Calm,-,N/A,,Clear,0,2013-01-10 12:55:00
8:15 AM,23.0,19.4,86,30.57,3.0,NE,4.6,-,N/A,,Clear,40,2013-01-10 13:15:00
8:55 AM,24.8,21.2,86,30.58,5.0,NE,5.8,-,N/A,,Clear,40,2013-01-10 13:55:00
9:35 AM,30.2,26.6,86,30.59,9.0,NE,6.9,-,N/A,,Clear,40,2013-01-10 14:35:00
9:55 AM,32.0,26.6,80,30.60,10.0,NE,5.8,-,N/A,,Clear,50,2013-01-10 14:55:00
10:15 AM,33.8,26.6,75,30.60,10.0,NE,6.9,-,N/A,,Clear,50,2013-01-10 15:15:00
10:35 AM,35.6,26.6,70,30.60,10.0,ENE,4.6,-,N/A,,Clear,70,2013-01-10 15:35:00
10:55 AM,35.6,26.6,70,30.60,10.0,East,5.8,-,N/A,,Clear,80,2013-01-10 15:55:00
11:15 AM,35.6,26.6,70,30.59,10.0,ENE,5.8,-,N/A,,Clear,70,2013-01-10 16:15:00
11:35 AM,37.4,24.8,60,30.58,10.0,NE,3.5,-,N/A,,Clear,50,2013-01-10 16:35:00
11:55 AM,37.4,24.8,60,30.56,10.0,ENE,4.6,-,N/A,,Clear,70,2013-01-10 16:55:00
12:15 PM,37.4,26.6,65,30.55,10.0,SE,5.8,-,N/A,,Clear,130,2013-01-10 17:15:00
12:35 PM,37.4,24.8,60,30.54,10.0,ESE,3.5,-,N/A,,Clear,120,2013-01-10 17:35:00
12:55 PM,37.4,24.8,60,30.53,10.0,ESE,5.8,-,N/A,,Clear,110,2013-01-10 17:55:00
1:15 PM,37.4,26.6,65,30.53,10.0,ESE,5.8,-,N/A,,Clear,120,2013-01-10 18:15:00
1:35 PM,37.4,26.6,65,30.53,10.0,SE,5.8,-,N/A,,Clear,140,2013-01-10 18:35:00
1:55 PM,37.4,26.6,65,30.52,10.0,SE,3.5,-,N/A,,Clear,140,2013-01-10 18:55:00
2:15 PM,37.4,24.8,60,30.52,10.0,ESE,5.8,-,N/A,,Clear,110,2013-01-10 19:15:00
2:35 PM,37.4,26.6,65,30.51,10.0,ESE,5.8,-,N/A,,Clear,120,2013-01-10 19:35:00
2:55 PM,37.4,26.6,65,30.51,10.0,ESE,3.5,-,N/A,,Clear,120,2013-01-10 19:55:00
3:15 PM,37.4,26.6,65,30.50,10.0,ESE,4.6,-,N/A,,Clear,110,2013-01-10 20:15:00
3:35 PM,37.4,24.8,60,30.49,10.0,East,5.8,-,N/A,,Clear,100,2013-01-10 20:35:00
3:55 PM,37.4,24.8,60,30.51,10.0,East,4.6,-,N/A,,Clear,100,2013-01-10 20:55:00
4:15 PM,35.6,26.6,70,30.49,10.0,East,4.6,-,N/A,,Clear,90,2013-01-10 21:15:00
4:35 PM,35.6,26.6,70,30.48,10.0,ESE,4.6,-,N/A,,Clear,110,2013-01-10 21:35:00
4:55 PM,35.6,26.6,70,30.47,10.0,East,5.8,-,N/A,,Clear,80,2013-01-10 21:55:00
5:15 PM,35.6,26.6,70,30.47,10.0,ENE,6.9,-,N/A,,Clear,70,2013-01-10 22:15:00
5:35 PM,35.6,26.6,70,30.46,10.0,NE,6.9,-,N/A,,Clear,50,2013-01-10 22:35:00
5:55 PM,35.6,26.6,70,30.45,10.0,East,8.1,-,N/A,,Clear,80,2013-01-10 22:55:00
6:15 PM,35.6,24.8,65,30.45,10.0,ENE,9.2,-,N/A,,Clear,70,2013-01-10 23:15:00
6:35 PM,35.6,26.6,70,30.44,10.0,East,8.1,-,N/A,,Clear,80,2013-01-10 23:35:00
6:55 PM,35.6,24.8,65,30.44,10.0,East,9.2,-,N/A,,Clear,80,2013-01-10 23:55:00
7:15 PM,35.6,26.6,70,30.43,10.0,East,8.1,-,N/A,,Clear,80,2013-01-11 00:15:00
7:35 PM,35.6,26.6,70,30.43,10.0,ENE,8.1,-,N/A,,Clear,70,2013-01-11 00:35:00
7:55 PM,35.6,26.6,70,30.43,10.0,ENE,5.8,-,N/A,,Clear,70,2013-01-11 00:55:00
8:15 PM,35.6,24.8,65,30.40,10.0,ENE,11.5,-,N/A,,Partly Cloudy,70,2013-01-11 01:15:00
8:35 PM,37.4,24.8,60,30.40,10.0,ENE,9.2,-,N/A,,Clear,60,2013-01-11 01:35:00
8:55 PM,37.4,24.8,60,30.39,10.0,ENE,10.4,-,N/A,,Partly Cloudy,70,2013-01-11 01:55:00
9:15 PM,37.4,24.8,60,30.38,10.0,ENE,8.1,-,N/A,,Mostly Cloudy,70,2013-01-11 02:15:00
9:55 PM,37.4,24.8,60,30.36,10.0,East,11.5,-,N/A,,Mostly Cloudy,90,2013-01-11 02:55:00
10:15 PM,37.4,24.8,60,30.34,10.0,ENE,9.2,-,N/A,,Scattered Clouds,70,2013-01-11 03:15:00
10:35 PM,37.4,24.8,60,30.33,10.0,East,10.4,-,N/A,,Partly Cloudy,80,2013-01-11 03:35:00
10:55 PM,37.4,24.8,60,30.33,10.0,East,8.1,-,N/A,,Mostly Cloudy,90,2013-01-11 03:55:00
11:15 PM,37.4,24.8,60,30.31,10.0,East,13.8,-,N/A,,Scattered Clouds,90,2013-01-11 04:15:00
11:35 PM,39.2,24.8,56,30.30,10.0,East,11.5,-,N/A,,Scattered Clouds,90,2013-01-11 04:35:00